[[{"header":{"parameterUnit":"m.s-1","parameterCategory":1,"la1":30.2991,"la2":30.254,"lo1":-89.0895,"lo2":-89.0444,"dy":0.0017,"dx":0.0017,"nx":28,"ny":28,"refTime":"2024-05-31T21:00:00:Z","depth":0,"parameterNumber":2,"parameterNumberName":"U-component_of_WINDS"},"data":[0,0,0,0,0,0,0,0,0,0,0,0,0,0,0,0,0,0,0,0,0,0,0,0,0,0,0,0,0,0,0,0,0,0,0,0,0,0,0,0,0,0,0,0,0,0,0,0,0,0,0,0,0,0,0,0,0,0,2.1208,2.121,0,2.1306,2.1307,2.1308,2.1364,2.1364,2.1364,2.1365,2.1466,2.1468,2.1471,0,0,0,0,0,0,0,0,0,0,0,0,0,2.1075,2.1077,2.1208,2.121,2.1211,2.1306,2.1307,2.1308,2.1364,2.1364,2.1364,2.1365,2.1465,2.1468,2.1471,0,0,0,0,0,0,0,0,0,0,0,0,0,2.1149,2.1078,2.1208,2.125,2.1255,2.1305,2.1307,2.1309,2.1364,2.1364,2.1365,2.1365,2.1464,2.1468,2.1472,2.1489,0,0,2.1483,2.1485,0,0,0,0,0,0,0,0,2.1144,2.1154,2.1243,2.1247,2.1253,2.1323,2.1297,2.1369,2.1364,2.1322,2.1365,2.1365,2.1418,2.1426,2.1444,2.1494,2.1498,2.1483,2.1486,2.1487,2.1488,0,0,0,0,0,0,0,2.1139,2.115,2.1247,2.1244,2.125,2.1265,2.1276,2.1311,2.1368,2.1326,2.133,2.1341,2.1421,2.144,2.1446,2.1499,2.1483,2.1487,2.1489,2.1491,2.1573,2.1573,0,0,0,0,0,0,2.1127,2.1145,2.1244,2.125,2.1198,2.1268,2.128,2.13,2.1367,2.1378,2.1341,2.1343,2.1433,2.1442,2.145,2.1477,2.1487,2.1491,2.1493,2.1573,2.1573,2.1573,0,0,0,0,0,0,2.1124,2.1135,2.124,2.1199,2.1213,2.1269,2.1292,2.1302,2.1321,2.1378,2.1389,2.1349,2.1434,2.1445,2.148,2.1482,2.1493,2.1496,2.1573,2.1573,2.1573,2.153,0,0,0,0,0,0,2.112,2.1134,2.1139,2.1198,2.1215,2.1266,2.1292,2.1304,2.1327,2.1331,2.1389,2.1399,2.1435,2.1474,2.1483,2.1487,2.1499,2.1573,2.1573,2.1573,2.1531,2.1528,2.1526,0,0,0,0,0,2.1115,2.1123,2.1139,2.1151,2.1223,2.1266,2.1276,2.1316,2.1326,2.1334,2.1372,2.1397,2.148,2.1477,2.1488,2.1493,2.1573,2.1573,2.1573,2.1533,2.1529,2.1526,0,0,0,0,0,0,2.1062,2.1131,2.115,2.1177,2.1216,2.1275,2.1285,2.1311,2.1347,2.1349,2.1399,2.1412,2.1443,2.1471,2.1467,2.1515,2.153,2.1532,2.1495,2.1492,2.1489,2.1482,2.1502,0,0,0,0,0,2.1053,2.1081,2.1141,2.1159,2.1177,2.1228,2.1248,2.1277,2.1318,2.1335,2.1375,2.1415,2.1451,2.1473,2.1509,2.1536,2.1551,2.1546,2.1543,2.154,2.1541,2.1562,2.156,2.1573,2.1573,2.1573,0,0,2.1036,2.1077,2.1092,2.115,2.1182,2.1212,2.1241,2.127,2.1293,2.1339,2.1375,2.1407,2.1455,2.1487,2.1503,2.1512,2.1542,2.154,2.1537,2.154,2.1561,2.156,2.1559,2.1573,2.1573,2.1573,0,0,2.102,2.1053,2.1073,2.1106,2.1156,2.1191,2.1196,2.1253,2.1276,2.1312,2.1349,2.1378,2.1437,2.1471,2.1496,2.1498,2.1524,2.1508,2.1493,2.1512,2.1511,2.1511,2.1513,2.1513,2.1509,2.1509,2.1509,0,2.0991,2.1036,2.108,2.1109,2.1134,2.1179,2.1201,2.1231,2.129,2.1308,2.1317,2.1395,2.1431,2.1473,2.1474,2.1492,2.1501,2.1501,2.1508,2.1508,2.1508,2.1511,2.1511,2.1507,2.1507,2.1508,2.1508,0,2.1001,2.1032,2.1043,2.11,2.1127,2.1152,2.1201,2.1224,2.1251,2.1285,2.1325,2.137,2.1417,2.1429,2.1455,2.1476,2.1481,2.1498,2.1514,2.1504,2.1508,2.1509,2.1504,2.1505,2.1505,2.1506,0,0,2.095,2.1035,2.1038,2.1066,2.1126,2.1152,2.1181,2.1227,2.1247,2.1287,2.1314,2.1365,2.1383,2.1412,2.1443,2.146,2.1461,2.1476,2.1478,2.1473,2.1491,2.1477,2.1478,2.1479,2.148,2.148,2.1487,0,2.0944,2.0996,2.1039,2.1077,2.1108,2.1152,2.1178,2.1219,2.1253,2.1286,2.1324,2.136,2.1379,2.1398,2.1416,2.1457,2.1466,2.1457,2.1506,2.1508,2.1493,2.148,2.1465,2.1469,2.1489,2.1489,2.1489,0,2.0942,2.0982,2.1023,2.1084,2.1098,2.112,2.1169,2.1198,2.1248,2.1271,2.1305,2.1338,2.1374,2.1387,2.1437,2.143,2.1454,2.1477,2.1479,2.1485,2.1497,2.1487,2.1471,2.1472,2.1492,2.1491,2.1491,0,2.0903,2.0967,2.1001,2.1024,2.1095,2.111,2.1141,2.119,2.1217,2.1259,2.1278,2.1324,2.1349,2.1385,2.1431,2.1436,2.1478,2.1494,2.15,2.1499,2.1506,2.1505,2.1496,2.152,2.152,2.152,2.152,0,2.0891,2.0915,2.0985,2.1006,2.1035,2.1085,2.1113,2.1148,2.1192,2.1222,2.1264,2.1291,2.135,2.1386,2.1422,2.146,2.1471,2.1492,2.1502,2.1489,2.1486,2.1505,2.1506,2.152,2.152,2.152,2.152,0,2.0852,2.09,2.094,2.1006,2.1023,2.1042,2.1099,2.1122,2.116,2.1197,2.1209,2.1268,2.1313,2.1362,2.1423,2.1447,2.1484,2.1497,2.1467,2.1472,2.1477,2.1476,2.1479,2.1483,2.1503,2.1503,2.1503,0,2.0841,2.0861,2.0929,2.0953,2.0982,2.1019,2.1047,2.1099,2.1126,2.1186,2.1203,2.1251,2.1291,2.136,2.141,2.1457,2.1473,2.1471,2.148,2.1467,2.1475,2.1473,2.1476,2.1467,2.1467,2.1466,2.1466,0,2.0817,2.0841,2.0879,2.0928,2.096,2.1,2.1042,2.1059,2.112,2.115,2.1196,2.1228,2.1291,2.1339,2.1393,2.1427,2.1457,2.1463,2.1468,2.1455,2.1437,2.1449,2.146,2.1463,2.1463,2.1463,2.1463,2.1464,2.0793,2.0814,2.0867,2.0909,2.0947,2.0986,2.1012,2.1054,2.1094,2.1149,2.1178,2.1224,2.1277,2.1354,2.1387,2.1425,2.1435,2.1441,2.1442,2.1443,2.144,2.1431,2.1435,2.1435,2.1436,2.1436,2.1436,0,2.0773,2.081,2.0849,2.0907,2.0942,2.0969,2.1018,2.1045,2.1085,2.1132,2.1172,2.1227,2.1275,2.1329,2.1381,2.1401,2.1417,2.1413,2.1412,2.142,2.1428,2.142,2.14,2.14,2.14,2.14,2.14,2.14,2.0766,2.0804,2.0835,2.0893,2.0931,2.0976,2.1003,2.104,2.1078,2.1138,2.1178,2.1213,2.1264,2.1321,2.1366,2.1382,2.1399,2.1391,2.1411,2.1416,2.1419,2.1422,2.1415,2.1395,2.1395,2.1401,2.1401,2.1401]},{"header":{"parameterUnit":"m.s-1","parameterCategory":1,"la1":30.2991,"la2":30.254,"lo1":-89.0895,"lo2":-89.0444,"dy":0.0017,"dx":0.0017,"nx":28,"ny":28,"refTime":"2024-05-31T21:00:00:Z","depth":0,"parameterNumber":3,"parameterNumberName":"V-component_of_WINDS"},"data":[0,0,0,0,0,0,0,0,0,0,0,0,0,0,0,0,0,0,0,0,0,0,0,0,0,0,0,0,0,0,0,0,0,0,0,0,0,0,0,0,0,0,0,0,0,0,0,0,0,0,0,0,0,0,0,0,0,0,5.5295,5.5296,0,5.537,5.5371,5.5372,5.5366,5.5365,5.5364,5.5363,5.543,5.5432,5.5435,0,0,0,0,0,0,0,0,0,0,0,0,0,5.5136,5.5139,5.5295,5.5296,5.5297,5.537,5.5371,5.5372,5.5366,5.5365,5.5364,5.5362,5.5429,5.5432,5.5435,0,0,0,0,0,0,0,0,0,0,0,0,0,5.5207,5.514,5.5295,5.5303,5.5304,5.537,5.5371,5.5373,5.5367,5.5365,5.5363,5.5362,5.5428,5.5432,5.5436,5.5495,0,0,5.5449,5.5451,0,0,0,0,0,0,0,0,5.5203,5.5213,5.5301,5.5303,5.5304,5.5357,5.534,5.5413,5.5367,5.5343,5.5363,5.5361,5.5406,5.5412,5.543,5.5498,5.5501,5.5449,5.5452,5.5453,5.5455,0,0,0,0,0,0,0,5.5198,5.5209,5.5324,5.5302,5.5304,5.53,5.5308,5.5354,5.5382,5.5345,5.5344,5.5354,5.5407,5.5426,5.5431,5.5502,5.5449,5.5453,5.5455,5.5457,5.5623,5.5625,0,0,0,0,0,0,5.5193,5.5205,5.5322,5.5327,5.5249,5.5304,5.5313,5.5342,5.5382,5.5387,5.5355,5.5353,5.5419,5.5426,5.5433,5.5506,5.5453,5.5457,5.546,5.5622,5.5624,5.5626,0,0,0,0,0,0,5.5189,5.5203,5.5319,5.5266,5.5281,5.5308,5.5341,5.5344,5.5363,5.539,5.5394,5.537,5.5418,5.5427,5.5481,5.5508,5.5459,5.5463,5.5619,5.5622,5.5625,5.5652,0,0,0,0,0,0,5.5185,5.5202,5.5227,5.5267,5.5284,5.5368,5.5342,5.5347,5.5372,5.537,5.5405,5.5409,5.5418,5.5474,5.5485,5.5513,5.5466,5.5617,5.5621,5.5624,5.5649,5.5655,5.5661,0,0,0,0,0,5.5179,5.5229,5.5228,5.5242,5.5316,5.537,5.5379,5.539,5.5374,5.5398,5.5415,5.5408,5.5504,5.548,5.5492,5.5522,5.5615,5.562,5.5624,5.5646,5.5654,5.5661,0,0,0,0,0,0,5.5187,5.5234,5.5234,5.5299,5.5331,5.5369,5.5399,5.5398,5.5433,5.5429,5.5439,5.5447,5.5501,5.5516,5.5489,5.5581,5.5557,5.5564,5.557,5.5578,5.5584,5.5579,5.547,0,0,0,0,0,5.5197,5.524,5.5278,5.5331,5.5348,5.5371,5.5394,5.5401,5.5433,5.5445,5.5467,5.5495,5.5532,5.5555,5.559,5.5651,5.5658,5.5677,5.5683,5.5688,5.5694,5.5727,5.5736,5.564,5.564,5.564,0,0,5.5216,5.5248,5.5274,5.5334,5.5359,5.5401,5.5382,5.5426,5.5457,5.5451,5.5504,5.5521,5.5552,5.561,5.5636,5.5625,5.5722,5.5694,5.5697,5.57,5.5733,5.5742,5.575,5.5643,5.5642,5.5642,0,0,5.5274,5.5303,5.5351,5.5378,5.5419,5.5434,5.5446,5.5485,5.5497,5.5551,5.5548,5.5582,5.5645,5.5668,5.5688,5.5757,5.5751,5.5768,5.58,5.5833,5.584,5.5847,5.5872,5.5881,5.5773,5.5773,5.5773,0,5.5292,5.5359,5.5375,5.5422,5.5448,5.5449,5.5497,5.552,5.5568,5.5585,5.5572,5.5652,5.5674,5.5737,5.5754,5.577,5.5783,5.5764,5.5839,5.5845,5.5852,5.5876,5.5885,5.5775,5.5775,5.5775,5.5775,0,5.538,5.5426,5.546,5.5512,5.5541,5.5587,5.5608,5.5635,5.5639,5.5655,5.571,5.5736,5.5777,5.5793,5.5795,5.5857,5.5848,5.5837,5.5812,5.5863,5.5885,5.5894,5.5778,5.5777,5.5777,5.5776,0,0,5.5443,5.5506,5.5518,5.5542,5.5588,5.5622,5.5668,5.5712,5.5735,5.5768,5.5806,5.586,5.5851,5.5873,5.5879,5.5907,5.5961,5.5892,5.5893,5.5904,5.603,5.6039,5.6049,5.5957,5.5959,5.596,5.6027,0,5.5506,5.5593,5.5609,5.5683,5.5725,5.5727,5.5767,5.5798,5.5814,5.5849,5.5865,5.5905,5.5889,5.5903,5.5931,5.5948,5.5986,5.5943,5.599,5.5992,5.5983,5.6061,5.607,5.6132,5.6036,5.6038,5.6039,0,5.5591,5.5632,5.5711,5.5753,5.5771,5.5807,5.585,5.5885,5.5919,5.5928,5.5955,5.5958,5.6003,5.5977,5.6039,5.6009,5.6029,5.6041,5.6043,5.6048,5.6019,5.6068,5.6152,5.6162,5.6053,5.6051,5.605,0,5.563,5.5704,5.5762,5.5782,5.5832,5.5858,5.5879,5.5912,5.5938,5.5973,5.599,5.6029,5.605,5.6079,5.6091,5.6071,5.6152,5.6126,5.6159,5.6159,5.6176,5.6175,5.6265,5.6188,5.6188,5.6188,5.6188,0,5.5699,5.5747,5.5781,5.5816,5.587,5.5887,5.5939,5.5959,5.5989,5.6026,5.6028,5.6062,5.6076,5.6111,5.612,5.617,5.6179,5.6187,5.6189,5.6187,5.6186,5.62,5.6196,5.619,5.619,5.6189,5.6189,0,5.5752,5.5776,5.584,5.5884,5.5896,5.5933,5.5969,5.6002,5.6019,5.6066,5.6077,5.6102,5.6145,5.616,5.6209,5.6216,5.6274,5.6271,5.6264,5.6264,5.6297,5.6294,5.6399,5.6414,5.6327,5.6328,5.6329,0,5.5794,5.5833,5.5882,5.591,5.5933,5.5976,5.6005,5.6022,5.605,5.6093,5.612,5.6164,5.6199,5.6265,5.6286,5.6324,5.6323,5.6357,5.6328,5.6326,5.6324,5.6322,5.6326,5.6363,5.6363,5.6364,5.6365,0,5.5867,5.5878,5.5921,5.5968,5.6003,5.604,5.6075,5.6096,5.6118,5.615,5.6195,5.6223,5.6276,5.6318,5.6358,5.6376,5.6374,5.6374,5.6384,5.6383,5.6377,5.6381,5.6279,5.6371,5.6371,5.637,5.637,5.637,5.5916,5.5951,5.5993,5.604,5.607,5.6104,5.6138,5.6161,5.6201,5.6249,5.6255,5.6304,5.6336,5.639,5.641,5.6446,5.6437,5.6451,5.6454,5.6458,5.6461,5.6371,5.6453,5.6453,5.6453,5.6453,5.6453,0,5.599,5.6018,5.6062,5.6114,5.6151,5.615,5.619,5.622,5.6264,5.6297,5.6333,5.6385,5.6427,5.6452,5.6492,5.6517,5.6516,5.6527,5.6525,5.6529,5.6466,5.6455,5.6526,5.6526,5.6526,5.6526,5.6526,5.6526,5.6033,5.6093,5.6109,5.6183,5.6209,5.626,5.6283,5.6313,5.634,5.64,5.6436,5.6454,5.6483,5.6526,5.6563,5.6569,5.6584,5.6595,5.66,5.6541,5.6533,5.6526,5.6515,5.6598,5.6598,5.666,5.6661,5.6661]}]]